Regional Weather Roundup
Issued by NWS Green Bay, WI

Home | Current Version | Previous Version | Graphics & Text | Print | Product List | Glossary Off
Versions: 1 2 3 4 5 6 7 8 9 10 11 12 13 14 15 16 17 18 19 20 21 22 23 24 25 26 27 28 29 30 31 32 33 34 35 36 37 38 39 40 41 42 43 44 45 46 47 48 49 50

000
ASUS43 KGRB 210310
RWRGRB

NORTH-CENTRAL AND NORTHEAST WISCONSIN REGIONAL WEATHER ROUNDUP
NATIONAL WEATHER SERVICE GREEN BAY WI
1000 PM CDT MON OCT 20 2014

WIZ005-009-010>012-018-019-210400-
NORTH CENTRAL WISCONSIN

CITY           SKY/WX    TMP DP  RH WIND       PRES   REMARKS
IRONWOOD       CLOUDY    43  39  87 NE6       30.07R
MANITOWISH WTR CLOUDY    41  40  97 N10G16    30.06S
ARBOR VITAE    CLOUDY    42  40  92 NE8       30.06R
EAGLE RIVER    CLOUDY    40  39  97 N5        30.05S
LAND O LAKES   CLOUDY    40  37  89 N9        30.07R
RHINELANDER    CLOUDY    41  38  89 NE6       30.06R
PHILLIPS       CLOUDY    45  39  81 N5        30.06R
ANTIGO         CLOUDY    42  39  92 N7        30.05R
TOMAHAWK       CLOUDY    44  40  87 CALM      30.06R
MERRILL        CLOUDY    46  41  84 N5        30.05S
$$

WIZ013-073-210400-
NORTHEAST WISCONSIN

CITY           SKY/WX    TMP DP  RH WIND       PRES   REMARKS
IRON MOUNTAIN  CLOUDY    43  36  76 NW9       30.02R
MARINETTE      CLOUDY    46  37  71 N10       30.01S
OCONTO         CLOUDY    46  41  84 N5        30.02R
$$

WIZ017-030-035>037-045-210400-
CENTRAL WISCONSIN

CITY           SKY/WX    TMP DP  RH WIND       PRES   REMARKS
MEDFORD        CLOUDY    46  40  79 N5        30.06R
WAUSAU         CLOUDY    45  40  82 NE5       30.04R
MOSINEE        NOT AVBL
MARSHFIELD     CLOUDY    49  40  71 N5        30.05R
WISC RAPIDS    CLOUDY    49  40  71 N7        30.06R
STEVENS POINT  CLOUDY    45  38  78 N5        30.05S
WAUPACA        CLOUDY    50  40  68 N6        30.04R
SHAWANO        CLOUDY    49  40  73 N8        30.04R
CLINTONVILLE   CLOUDY    46  39  76 N5        30.03S
$$

WIZ038-039-048-051-210400-
FOX VALLEY

CITY           SKY/WX    TMP DP  RH WIND       PRES   REMARKS
NWS GREEN BAY  CLOUDY    48  41  76 N8        30.03R
APPLETON       CLOUDY    46  43  87 N6        30.03R
OSHKOSH        CLOUDY    49  45  86 NE5       30.02R
FOND DU LAC    CLOUDY    48  44  86 N13       30.03R
$$

WIZ022-050-052-210400-
EAST CENTRAL WISCONSIN

CITY           SKY/WX    TMP DP  RH WIND       PRES   REMARKS
STURGEON BAY   CLOUDY    46  37  71 N15       30.02R
MANITOWOC      CLOUDY    49  43  80 N10       30.01R
SHEBOYGAN      CLOUDY    48  43  82 NW8       30.01R
$$

LMZ563-521-522-541>543-210400-
LAKESHORE

STATION/POSITION TIME  TEMP    WIND        PRES    VSBY  WAVE
                       AIR SEA DIR/SP/G                  HT/PER
                 (UTC) (F)     (DEG/KT/KT) (MB)    (MI)  (FT/S)
SHEBOYGAN LKSHOR 0300   50 50  330/  9/ 13 1016.5R
NORTHPORT PIER   0300   47     340/ 21/ 28 1015.9S
N MID LAKE BUOY  0300   47 52  340/ 23/ 27 1014.7R         5/ 5
CHAMBERS ISLAND  0300   47     330/ 18/ 22 1016.6R
$$



USA.gov is the U.S. government's official web portal to all federal, state and local government web resources and services.